Date,TemperatureHighF,TemperatureAvgF,TemperatureLowF,DewpointHighF,DewpointAvgF,DewpointLowF,HumidityHigh,HumidityAvg,HumidityLow,PressureMaxIn,PressureMinIn,WindSpeedMaxMPH,WindSpeedAvgMPH,GustSpeedMaxMPH,PrecipitationSumIn
2013-1-8,41.9,27.0,14.5,18.4,11.7,0.6,67,52,38,29.95,29.80,9,3,17,0.00
2013-1-9,37.0,31.7,21.9,24.0,18.8,13.3,73,59,50,29.99,29.54,5,2,11,0.00
2013-1-10,43.5,36.0,25.7,29.7,20.3,14.2,83,53,39,30.11,29.55,10,3,25,0.01
2013-1-11,37.9,30.2,22.6,29.5,18.6,12.5,86,63,38,30.10,29.82,4,1,9,0.01
2013-1-12,37.8,35.3,33.3,35.9,32.0,29.5,93,88,85,29.82,29.70,4,1,7,0.11
2013-1-13,41.9,37.5,34.3,40.3,35.2,31.4,95,91,88,29.75,26.68,4,2,8,0.04
2013-1-14,53.8,42.1,32.5,49.0,34.2,18.8,95,76,45,29.82,29.44,8,3,19,0.02
2013-1-15,34.2,33.2,32.5,22.8,21.3,20.0,66,61,56,29.85,29.81,2,0,7,0.00
2013-1-16,29.3,27.7,27.1,23.9,21.7,20.9,82,78,75,29.55,29.37,2,0,4,0.00
2013-1-17,28.0,27.4,26.8,23.3,22.5,21.7,82,82,81,29.38,29.37,0,0,0,0.00
2013-1-20,41.4,29.2,23.4,11.5,0.5,-7.3,33,28,23,29.44,29.12,16,12,30,0.09
2013-1-21,25.2,19.9,12.9,8.9,-3.4,-15.9,68,39,19,29.63,29.39,9,3,14,0.00
2013-1-22,24.1,13.6,4.6,8.2,-2.7,-20.3,68,50,23,29.61,29.35,10,2,22,0.00
2013-1-23,5.7,-0.1,-4.2,-17.0,-28.5,-34.4,40,24,17,29.67,29.58,11,4,24,0.01
2013-1-24,10.9,1.9,-6.3,-20.5,-27.6,-33.0,30,23,17,29.70,29.54,12,6,24,0.00
2013-1-25,16.7,8.8,1.9,-12.9,-17.7,-21.9,40,28,19,29.79,29.61,10,5,16,0.00
2013-1-26,20.7,12.0,4.8,-7.9,-14.2,-20.9,44,30,17,29.73,29.55,8,3,15,0.00
2013-1-27,25.2,14.2,9.0,-9.1,-13.9,-19.7,39,27,18,29.98,29.70,10,5,21,0.00
2013-1-28,22.1,18.5,9.9,11.5,-2.9,-19.6,69,42,20,29.98,29.64,4,1,8,0.00
2013-1-29,33.6,21.0,10.8,27.2,11.8,1.7,86,67,59,29.77,29.62,4,1,6,0.00
2013-1-30,53.8,40.7,31.5,52.1,38.4,28.1,95,91,87,29.70,29.03,7,2,14,0.28
2013-1-31,59.7,56.2,53.4,55.1,53.1,50.0,95,89,81,29.03,28.46,15,10,35,0.90
2013-2-1,29.5,19.5,13.8,9.5,-6.0,-11.2,52,32,20,29.62,29.08,13,5,21,0.04
2013-2-2,22.8,17.7,10.2,7.1,-2.0,-9.7,58,42,28,29.77,29.62,8,3,17,0.00
2013-2-3,28.8,21.5,15.6,8.4,6.0,2.2,68,51,34,29.63,29.29,3,1,7,0.00
2013-2-4,28.2,20.6,14.0,11.0,-4.0,-18.4,68,37,16,29.47,29.27,13,5,32,0.00
2013-2-5,28.6,16.1,6.4,-0.2,-10.1,-17.3,46,30,18,29.60,29.46,8,2,15,0.00
2013-2-6,36.1,22.8,14.9,16.2,4.1,-20.5,68,47,16,30.83,29.52,8,3,17,0.00
2013-2-7,25.5,14.9,9.3,-8.9,-17.0,-20.5,31,22,16,30.10,29.85,8,3,14,0.00
2013-2-8,15.3,12.1,8.6,4.6,-1.3,-18.8,69,57,20,30.08,29.39,5,3,13,0.00
2013-2-9,20.7,15.0,5.0,14.0,6.8,-5.4,75,69,61,29.74,29.29,4,2,14,0.00
2013-2-10,36.3,15.7,2.3,1.9,-4.4,-10.1,62,43,17,29.95,29.74,6,2,10,0.00
2013-2-11,27.9,23.1,15.3,21.7,11.4,-5.7,79,62,33,29.91,29.19,3,1,6,0.00
2013-2-12,38.1,32.2,27.3,29.0,26.9,21.7,89,81,65,29.21,29.16,6,2,12,0.00
2013-2-28,34.7,33.2,32.7,30.7,29.3,28.7,86,85,85,29.12,29.09,3,0,3,0.04
2013-3-1,37.9,33.3,28.6,28.7,26.4,24.6,86,76,60,29.21,29.08,5,0,5,0.02
2013-3-13,46.4,39.9,29.5,33.5,24.2,19.3,73,54,37,29.30,29.24,17,5,17,0.70
2013-3-14,34.0,27.5,0.0,22.0,11.5,-6.2,75,49,33,29.31,29.18,19,7,19,0.00
2013-3-15,35.4,22.3,14.5,24.2,3.1,-7.5,82,45,26,29.32,29.13,17,6,17,0.02
2013-3-16,32.4,25.8,16.7,24.2,7.4,-3.3,82,48,24,29.41,29.18,10,3,10,0.00
2013-3-17,28.8,21.7,13.3,5.2,-4.2,-18.6,56,33,17,29.82,29.40,19,5,19,0.00
2013-3-18,34.3,21.6,8.6,13.9,-5.8,-12.8,54,31,17,29.95,29.78,12,3,12,0.00
2013-3-20,34.7,30.5,25.5,18.2,13.2,8.4,58,48,41,29.27,29.18,22,8,22,0.01
2013-3-21,32.7,23.2,14.9,12.0,8.1,4.8,68,53,35,29.29,29.15,11,3,11,0.00
2013-4-2,33.1,28.9,28.0,9.4,5.9,4.0,39,37,32,29.37,29.28,21,10,21,0.00
2013-4-3,42.8,32.8,25.2,7.0,2.3,-4.7,43,28,17,29.60,29.36,27,11,27,0.00
2013-4-5,55.8,46.2,33.3,20.5,15.2,10.4,50,31,18,29.41,29.22,17,6,17,0.00
2013-4-6,33.3,28.4,23.9,10.4,-1.6,-12.2,38,27,17,29.68,29.41,22,8,22,0.00
2013-4-13,49.1,42.9,37.9,36.1,33.3,31.1,89,70,50,29.47,29.34,8,2,8,1.04
2013-4-14,44.8,31.3,0.0,36.1,31.7,25.0,89,59,46,30.10,29.44,14,2,14,0.04
2013-4-15,33.3,32.9,32.7,28.2,28.1,27.9,83,82,82,30.26,30.25,2,2,2,0.00
2013-4-16,63.9,56.8,50.0,47.6,41.7,32.1,78,59,36,30.23,29.91,24,11,24,0.00
2013-4-17,66.7,52.2,37.8,48.7,28.0,17.2,79,43,17,30.27,29.92,17,5,17,0.00
2013-4-18,56.3,46.0,31.6,35.1,25.0,13.3,69,46,21,30.38,30.06,15,4,15,0.00
2013-4-19,72.9,60.6,49.5,59.3,50.6,28.8,91,71,42,30.06,29.53,22,9,24,0.00
2013-4-20,64.2,48.2,37.8,59.0,32.0,15.9,91,57,26,30.10,29.54,24,10,24,0.24
2013-4-21,57.0,39.8,31.1,20.7,13.9,6.3,58,36,16,30.59,30.09,20,5,20,0.00
2013-4-22,53.1,40.0,30.4,27.0,17.0,8.0,82,43,17,30.70,30.53,13,3,13,0.00
2013-4-23,39.7,35.3,29.7,37.8,31.4,25.9,94,85,72,30.53,30.08,6,2,6,0.00
2013-4-24,75.2,54.2,39.4,50.1,43.8,37.1,95,72,29,30.08,29.67,14,4,14,0.02
2013-4-25,60.4,52.8,38.3,47.4,30.4,17.3,73,45,20,30.21,29.63,24,8,24,0.00
2013-4-26,59.2,47.3,33.3,33.9,26.1,19.1,67,46,24,30.35,30.21,11,2,11,0.00
2013-4-27,64.8,50.2,36.3,36.9,29.7,16.5,86,50,16,30.34,30.20,15,3,15,0.00
2013-4-28,69.3,52.7,36.5,38.1,31.9,25.5,81,50,20,30.27,30.15,15,4,15,0.00
2013-4-29,59.2,45.8,41.2,35.1,33.0,29.3,74,62,33,30.19,30.14,7,2,7,0.00
2013-5-12,66.7,57.8,46.8,52.7,39.9,25.0,82,52,38,30.07,29.88,19,7,19,0.37
2013-5-13,52.2,46.1,41.4,33.0,27.4,23.2,70,49,34,30.34,30.06,24,9,24,0.00
2013-5-14,57.4,46.8,36.3,33.7,27.5,18.4,83,51,23,30.33,30.26,15,3,15,0.00
2013-5-15,64.0,49.0,35.8,50.2,36.5,22.3,100,69,23,30.87,29.97,17,3,17,0.07
2013-5-16,76.1,60.9,50.0,54.6,41.6,24.2,96,59,16,30.13,29.92,24,6,24,0.00
2013-5-17,53.6,51.9,50.0,43.2,41.2,37.5,69,67,62,30.16,30.13,7,1,7,0.00
2013-5-20,71.8,61.8,51.4,61.7,57.1,50.3,100,86,67,30.37,30.26,16,4,16,0.26
2013-5-21,58.8,54.1,48.7,57.4,53.1,47.9,100,97,92,30.43,30.24,8,1,8,0.18
2013-5-22,58.8,52.7,49.1,56.3,51.2,48.3,100,95,89,30.33,30.20,5,0,5,0.30
2013-5-23,68.9,59.1,49.5,66.6,57.5,48.6,100,94,85,30.25,30.10,14,3,14,0.02
2013-5-24,68.9,60.9,48.4,65.9,58.0,47.6,100,90,74,30.16,29.96,12,4,12,0.48
2013-5-25,50.2,47.0,42.1,49.1,46.1,41.0,100,97,93,30.16,30.00,10,3,10,0.63
2013-6-8,56.8,56.8,56.7,56.9,56.8,56.7,100,100,100,30.02,30.02,6,4,6,1.38
2013-6-9,66.4,60.5,57.2,56.0,54.0,52.6,85,79,65,30.49,30.42,2,1,2,0.01
2013-6-10,61.5,55.5,53.6,56.3,52.9,51.6,96,91,77,30.53,30.38,3,0,3,0.00
2013-6-17,79.3,69.7,59.9,61.0,57.1,51.9,94,66,39,29.98,29.87,17,4,17,0.82
2013-6-18,62.4,59.0,54.1,58.5,56.0,52.5,97,90,75,30.08,29.97,7,1,7,0.01
2013-6-19,72.9,60.5,48.2,54.6,48.5,41.1,97,69,35,30.25,30.02,10,2,10,0.01
2013-6-20,75.4,62.2,49.3,53.1,47.7,41.8,96,63,35,30.35,30.25,11,2,11,0.00
2013-6-21,80.4,66.3,54.7,58.0,53.0,47.9,89,66,36,30.34,30.28,10,3,11,0.00
2013-6-22,79.7,68.6,60.1,69.4,61.7,54.6,100,80,52,30.32,30.20,8,1,8,0.01
2013-6-23,82.4,69.7,63.0,74.1,67.0,61.2,100,91,70,30.25,30.07,14,2,14,0.50
2013-6-24,88.0,74.0,66.7,71.3,67.1,61.8,97,82,45,30.11,29.98,19,3,19,0.01
2013-6-25,87.1,74.6,67.1,69.9,67.3,64.7,96,80,49,30.04,29.84,13,4,13,0.01
2013-6-26,75.0,68.5,59.7,70.0,66.3,58.6,97,93,75,29.99,29.83,5,1,5,0.08
2013-6-27,71.4,63.4,58.3,67.4,61.5,57.4,97,94,85,29.98,29.90,5,1,5,0.04
2013-6-28,64.4,59.9,56.3,64.4,58.9,56.3,100,96,94,29.91,29.63,8,2,8,0.74
2013-6-29,81.0,70.5,62.4,70.7,64.9,60.9,100,84,59,29.81,29.62,14,3,14,0.11
2013-6-30,82.6,72.6,65.8,72.7,67.4,63.0,100,85,57,30.04,29.81,20,3,20,0.39
2013-7-1,76.3,70.9,65.8,72.6,69.0,65.4,100,94,81,30.19,30.04,8,1,8,0.20
2013-7-2,71.2,66.8,59.5,69.8,65.5,58.4,100,96,94,30.30,30.18,6,1,6,0.08
2013-7-20,84.7,78.1,67.6,68.4,65.9,62.7,89,67,53,30.00,28.34,18,6,18,1.47
2013-7-21,77.7,69.9,61.5,64.6,60.8,55.3,92,74,47,30.21,30.00,8,2,8,0.00
2013-7-22,72.0,66.4,62.8,67.9,63.9,60.4,96,92,82,30.25,30.12,4,0,4,0.11
2013-7-23,69.3,64.7,60.8,67.5,63.3,59.4,100,95,93,30.12,29.76,7,0,7,1.91
2013-7-24,78.1,68.7,53.8,70.9,61.4,49.2,100,79,51,30.18,29.78,16,3,16,0.00
2013-7-25,71.2,61.2,50.9,60.9,53.2,47.2,92,76,53,30.31,30.18,7,1,7,0.00
2013-7-26,72.1,64.7,60.6,64.9,60.9,58.0,96,88,68,30.30,30.13,8,1,8,0.01
2013-7-27,79.9,69.7,60.6,64.9,60.1,50.6,94,74,38,30.23,30.03,11,3,11,0.00
2013-7-28,78.3,69.0,61.9,67.1,64.0,60.3,95,85,62,30.23,30.19,8,2,8,0.00
2013-8-13,69.3,66.9,63.7,65.9,64.1,61.9,95,91,84,30.03,29.89,8,1,8,2.10
2013-8-14,70.7,64.2,55.4,63.7,54.5,48.4,96,72,49,30.12,29.84,25,6,25,0.00
2013-8-15,72.0,61.7,53.1,54.8,50.6,47.0,91,69,42,30.30,30.11,17,4,17,0.00
2013-8-16,75.0,63.8,54.7,58.6,54.2,48.5,94,73,42,30.39,30.28,11,2,11,0.00
2013-8-17,76.1,63.3,56.3,60.4,55.6,46.8,96,79,40,30.48,30.39,13,2,13,0.00
2013-8-18,75.0,65.8,57.9,63.5,59.0,55.9,96,80,58,30.51,30.27,11,2,11,0.00
2013-8-19,79.9,69.6,58.8,64.0,59.3,56.0,96,72,45,30.27,30.13,17,3,17,0.00
2013-8-20,81.7,71.8,61.7,64.5,60.6,55.1,94,71,42,30.30,30.17,14,2,14,0.00
2013-8-21,83.7,71.1,63.1,68.4,63.2,59.1,94,78,45,30.34,30.21,11,2,11,0.00
2013-8-22,83.8,74.6,63.7,68.1,63.5,59.3,91,70,44,30.22,30.00,16,4,16,0.00
2013-8-23,76.8,68.6,58.8,64.1,53.9,41.7,83,61,33,30.35,30.01,10,2,10,0.00
2013-8-24,75.9,61.9,50.2,56.2,49.1,44.7,88,65,37,30.52,30.34,11,2,11,0.00
2013-8-25,77.9,65.0,54.1,60.1,54.4,49.1,97,72,40,30.56,30.34,11,2,11,0.00
2013-8-26,74.5,67.4,60.8,66.9,62.1,55.3,95,83,71,30.35,30.08,11,3,11,0.04
2013-8-28,67.3,65.8,56.3,64.9,64.2,54.3,96,95,91,30.50,30.17,4,0,4,0.26
2013-8-29,64.8,63.1,61.3,63.7,61.5,59.9,97,94,93,30.30,30.18,5,0,5,0.07
2013-8-30,68.4,62.3,60.8,63.4,60.5,59.4,96,94,82,30.22,30.11,9,1,9,0.01
2013-9-2,70.9,68.4,66.7,69.2,67.3,65.9,97,96,95,30.05,29.94,4,0,4,0.56
2013-9-3,66.7,66.6,66.4,65.9,65.7,65.5,97,97,97,29.95,29.92,2,0,2,0.00
2013-9-8,64.8,55.8,45.3,44.9,41.9,38.9,81,61,43,30.17,29.92,15,3,15,0.00
2013-9-9,67.5,55.8,43.2,49.0,43.5,38.4,95,66,40,30.29,30.17,17,4,17,0.00
2013-9-10,67.6,61.8,52.5,66.3,59.1,48.1,100,91,71,30.21,30.12,11,2,11,0.02
2013-9-11,70.7,67.6,66.2,69.1,66.6,65.4,97,97,95,30.16,30.12,3,1,5,0.00
2013-9-13,70.7,62.3,53.6,67.7,60.1,51.9,100,93,78,29.85,29.68,2,0,7,1.10
2013-9-14,53.6,53.5,53.4,52.0,51.9,51.9,95,94,94,29.85,29.85,0,0,0,0.00
2013-9-17,60.4,50.6,47.5,48.6,47.2,46.6,100,89,61,29.93,29.90,0,0,2,0.00
2013-9-18,70.3,56.1,46.0,52.3,47.0,41.7,100,75,37,29.91,29.72,7,2,14,0.00
2013-9-19,55.4,52.3,49.5,52.2,50.1,48.6,97,92,87,29.72,29.70,2,0,4,0.00
2013-9-24,60.6,52.9,45.5,46.2,43.7,38.8,94,73,50,29.51,29.42,8,2,17,0.00
2013-9-25,59.7,50.3,43.3,50.8,45.5,41.8,100,85,61,29.60,29.47,5,0,12,0.00
2013-9-26,65.1,52.6,42.1,53.6,46.1,41.0,100,81,54,29.75,29.60,5,1,9,0.00
2013-9-27,67.3,58.7,51.6,55.6,51.5,49.3,96,78,55,29.88,29.76,4,0,7,0.00
2013-9-28,70.5,55.8,48.6,57.8,50.6,46.9,100,85,46,29.96,29.88,1,0,4,0.00
2013-9-29,68.0,64.6,51.6,55.3,50.5,46.4,96,62,48,29.88,29.78,3,2,5,0.00
2013-10-3,72.9,65.6,56.5,54.7,49.9,44.5,80,59,37,29.67,29.61,7,2,14,0.00
2013-10-4,63.9,57.7,55.4,55.8,53.3,51.5,91,85,75,29.69,29.65,0,0,0,0.00
2013-10-5,63.3,57.9,54.3,52.9,48.8,42.7,86,72,53,29.75,29.67,2,0,4,0.00
2013-10-6,55.8,50.5,47.8,52.1,45.1,36.8,100,83,60,29.87,29.74,2,0,4,0.14
2013-10-7,63.5,53.2,48.6,61.8,51.6,47.6,97,94,79,30.41,29.39,12,2,21,0.95
2013-10-8,63.0,52.0,41.4,51.5,41.6,35.6,100,70,39,29.99,29.47,8,2,16,0.00
2013-10-9,62.8,47.8,35.8,46.6,39.6,33.9,100,77,41,30.75,29.97,3,0,7,0.00
2013-10-10,63.9,51.2,43.3,52.3,45.6,38.0,100,84,41,29.97,29.79,4,1,7,0.00
2013-10-11,66.6,54.8,46.9,52.1,48.5,45.3,100,82,48,30.53,29.72,1,0,5,0.00
2013-10-12,54.5,50.8,44.1,51.9,48.4,42.7,96,92,85,30.02,29.79,2,0,5,0.00
2013-10-13,55.4,49.5,42.8,49.1,44.9,41.5,100,85,68,30.06,29.99,2,0,4,0.00
2013-10-14,65.3,52.3,41.2,51.6,45.0,40.1,100,78,50,29.99,29.83,6,1,11,0.00
2013-10-15,63.1,56.7,50.4,52.1,50.1,45.9,90,79,61,29.88,29.79,3,0,6,0.00
2013-10-16,61.0,54.4,48.7,51.7,48.6,46.0,95,82,58,29.79,29.49,2,0,6,0.00
2013-10-17,73.6,57.4,50.0,53.9,49.1,44.8,96,77,40,29.50,29.30,8,2,14,0.00
2013-10-18,63.5,55.6,47.3,53.8,47.4,36.3,96,76,47,29.46,29.19,9,3,20,0.26
2013-10-19,62.4,52.3,42.3,44.8,40.6,36.1,89,66,46,29.55,29.34,7,2,14,0.00
2013-10-20,58.3,52.1,43.3,46.7,36.9,25.7,90,59,30,29.59,29.25,10,4,21,0.00
2013-10-21,61.3,49.4,37.8,44.2,38.6,34.0,97,68,44,29.69,29.57,6,1,13,0.00
2013-10-22,55.0,49.7,39.4,51.5,44.2,37.9,97,82,59,30.07,29.31,6,2,12,0.02
2013-10-23,49.1,39.9,36.7,39.0,34.9,30.9,100,83,54,29.95,29.31,5,0,9,0.00
2013-10-24,48.9,42.0,34.0,34.1,28.9,24.6,83,61,42,30.17,29.93,12,5,23,0.01
2013-10-25,46.4,38.1,32.2,32.0,27.0,21.0,88,65,40,30.42,30.16,8,2,17,0.00
2013-10-26,47.3,40.2,29.7,32.5,27.3,23.3,88,63,42,30.43,30.17,9,3,17,0.00
2013-10-27,52.5,44.2,34.5,34.3,29.6,24.8,73,57,37,30.34,30.09,8,3,16,0.00
2013-10-28,52.2,39.6,28.9,36.4,27.0,18.8,79,62,38,30.66,30.33,10,2,22,0.00
2013-10-29,49.3,33.1,25.2,25.6,18.4,10.1,74,57,21,30.75,30.65,6,2,13,0.00
2013-10-30,51.8,37.1,30.2,30.5,26.2,20.9,88,65,42,30.66,30.40,7,2,17,0.00
2013-10-31,59.2,44.7,33.8,57.5,41.7,30.4,100,89,75,30.54,30.06,10,2,21,0.21
2013-11-1,59.2,58.4,57.7,57.1,56.2,55.3,94,92,91,30.06,29.91,12,9,21,0.02
2013-11-5,39.0,35.1,32.2,29.7,25.9,22.7,79,69,57,29.92,29.84,2,0,4,0.05
2013-11-6,55.9,46.0,34.7,41.5,36.4,27.5,85,70,54,29.93,29.66,8,3,14,0.00
2013-11-7,55.6,49.0,35.1,53.4,42.7,25.0,94,79,58,29.74,29.40,9,3,16,0.12
2013-11-8,43.2,36.4,29.7,25.4,20.8,15.8,71,53,42,29.76,29.53,9,3,16,0.00
2013-11-9,40.8,36.0,32.0,21.7,17.6,14.3,57,47,39,29.89,29.76,7,3,17,0.00
2013-11-11,43.2,39.9,36.1,29.7,27.0,25.1,73,60,49,29.93,29.83,10,4,18,0.08
2013-11-12,43.0,31.0,25.0,31.5,14.1,7.6,65,49,35,30.10,29.81,10,4,19,0.00
2013-11-13,33.6,26.5,19.8,13.6,6.7,-0.6,60,43,26,30.21,30.04,11,4,17,0.00
2013-11-14,47.7,35.5,28.9,26.1,20.5,13.6,78,55,40,30.06,29.97,10,4,19,0.00
2013-11-15,54.3,39.1,29.7,24.3,20.3,12.1,79,50,20,30.16,30.05,7,2,13,0.00
2013-11-16,62.4,42.4,33.1,28.3,23.0,14.4,67,49,16,30.30,30.14,4,1,7,0.00
2013-11-17,41.2,36.9,30.0,40.1,34.1,23.0,100,90,68,30.30,29.85,4,2,7,0.17
2013-11-18,63.5,52.1,40.8,58.0,43.2,29.0,100,75,38,29.85,29.46,12,4,21,0.48
2013-11-19,44.4,34.2,27.1,29.6,15.0,9.5,61,45,32,30.23,29.58,10,4,24,0.00
2013-11-20,43.2,30.4,23.7,13.6,9.2,4.1,58,42,20,30.58,30.23,6,2,12,0.00
2013-11-21,43.3,31.5,23.0,18.7,13.2,3.4,77,49,19,29.93,29.63,8,1,14,0.00
2013-11-22,38.1,36.0,30.9,38.1,29.4,18.9,100,78,54,29.63,29.07,3,0,6,0.00
2013-11-23,40.5,33.7,24.4,39.0,21.5,8.0,100,64,31,29.18,29.00,14,4,26,0.01
2013-11-24,24.6,18.7,14.9,11.0,-3.0,-10.9,61,38,27,29.37,29.02,11,6,33,0.26
2013-11-25,27.9,20.8,13.6,5.2,-6.0,-12.2,39,30,18,29.58,29.37,10,5,23,0.00
2013-11-26,32.2,28.9,25.2,29.2,21.1,4.5,92,74,38,29.58,29.39,8,2,15,0.00
2013-11-27,32.4,31.7,31.1,30.8,30.0,29.1,94,93,92,29.39,29.25,3,2,6,0.00
2013-11-29,140.0,125.5,23.9,99.9,88.9,13.2,63,39,31,29.96,29.92,2,1,5,2.04
2013-11-30,27.7,27.5,27.1,12.7,10.7,9.6,53,49,47,29.81,29.78,5,4,11,0.00
2013-12-1,35.6,31.5,27.1,32.1,26.0,12.5,96,81,53,29.78,29.41,4,0,8,0.01
2013-12-2,37.2,34.3,32.5,35.7,33.1,31.4,96,95,93,29.42,29.29,0,0,4,0.01
2013-12-3,42.4,33.5,28.4,41.2,32.3,27.4,100,95,84,29.30,29.23,2,0,5,0.01
2013-12-4,42.3,32.2,25.5,28.3,22.8,18.7,96,69,49,29.56,29.28,5,1,11,0.00
2013-12-5,36.3,32.3,27.7,34.8,28.7,21.7,96,86,75,29.60,29.27,3,1,6,0.07
2013-12-6,43.5,39.0,32.4,41.4,31.9,16.1,100,78,45,29.48,29.22,6,2,13,0.05
2013-12-7,36.0,30.4,24.1,29.2,14.3,3.0,92,54,28,29.75,29.42,8,2,19,0.01
2013-12-8,31.5,24.1,19.9,8.6,3.2,-3.0,51,40,26,29.88,29.74,6,2,13,0.00
2013-12-9,25.7,23.0,20.3,22.1,15.2,4.6,87,73,44,29.83,29.18,4,2,8,0.00
2013-12-10,33.4,28.3,21.2,27.3,19.1,3.7,93,70,43,29.24,29.08,7,3,14,0.00
2013-12-11,30.2,22.8,15.3,16.1,6.7,2.8,81,50,36,29.46,29.24,12,5,22,0.00
2013-12-12,22.6,13.2,7.2,9.1,-7.2,-17.5,64,41,18,29.58,29.33,8,3,19,0.00
2013-12-13,24.6,12.4,0.5,7.1,-6.0,-21.0,67,44,23,29.69,29.25,11,2,27,0.00
2013-12-14,14.5,6.6,-0.4,-0.8,-14.0,-24.9,66,39,19,29.90,29.60,5,1,9,0.00
2013-12-15,24.6,16.4,7.2,19.8,8.9,-1.7,83,72,66,29.60,28.77,6,3,13,0.00
2013-12-16,23.7,16.6,5.4,12.7,-1.3,-15.8,76,48,21,29.50,28.99,11,4,26,0.02
2013-12-17,12.4,5.3,-6.0,4.0,-8.8,-19.0,71,52,35,30.23,29.32,4,1,7,0.00
2013-12-18,32.7,20.9,11.5,16.6,10.6,4.0,78,65,44,29.33,29.18,7,1,15,0.00
2013-12-19,34.7,27.3,20.1,23.4,17.3,12.3,79,66,47,29.43,29.25,7,2,14,0.00
2013-12-20,40.1,33.9,29.8,30.8,27.2,22.9,89,76,60,29.46,29.26,0,0,0,0.01
2013-12-21,42.8,37.6,33.1,40.8,34.5,29.9,100,89,72,29.30,29.20,3,0,7,0.05
2013-12-22,38.7,31.4,27.5,38.5,30.2,24.7,100,95,89,29.42,29.20,3,0,7,0.33
2013-12-23,33.3,30.7,27.1,32.3,28.9,24.4,96,93,89,29.46,29.33,0,0,0,0.00
2013-12-24,32.9,25.1,14.4,31.9,17.9,2.9,97,74,58,29.53,29.39,1,0,16,0.00
2013-12-25,29.1,10.9,3.4,10.8,-1.9,-10.0,72,56,36,29.86,29.53,0,0,0,0.00
2013-12-26,20.7,16.1,10.9,15.8,8.4,-0.5,81,71,50,29.82,29.44,0,0,0,0.00
2013-12-27,26.6,21.2,17.2,16.8,12.9,9.6,81,70,59,29.55,29.51,5,1,11,0.01
2013-12-28,37.2,28.8,17.4,30.0,21.2,11.1,87,73,66,29.52,29.31,7,2,11,0.00
2013-12-29,35.6,33.1,29.1,31.8,30.5,26.4,95,90,81,29.93,29.33,1,0,3,0.01
2013-12-30,34.5,24.6,3.7,32.9,17.1,-7.4,96,74,50,30.04,29.44,2,0,10,0.00
2013-12-31,18.3,4.7,-2.2,-0.6,-7.9,-13.8,66,55,36,30.04,27.72,0,0,0,0.00
2014-1-1,17.8,7.2,2.3,1.3,-3.0,-7.0,68,62,44,30.20,30.00,0,0,0,0.00
2014-1-2,0.1,-3.5,-5.1,-11.3,-14.6,-16.2,58,57,57,30.06,29.84,3,2,9,0.00